www.pogodaiklimat.ru
ПОГОДА в Энаротали
Время
(UTC), дата
21 9.11
00 10.11
03 10.11
06 10.11
09 10.11
12 10.11
21 10.11
00 11.11
03 11.11
06 11.11
09 11.11
12 11.11
21 11.11
00 12.11
03 12.11
06 12.11
09 12.11
12 12.11
21 12.11
00 13.11
03 13.11
06 13.11
09 13.11
12 13.11
21 13.11
00 14.11
03 14.11
06 14.11
09 14.11
12 14.11
21 14.11
00 15.11
03 15.11
06 15.11
09 15.11
12 15.11
21 15.11
00 16.11
03 16.11
06 16.11
09 16.11
12 16.11
Ветер
(напр.,м/с)
Видим. Явления Облачность Т
(С)
Тd
(С)
f
(%)
Тe
(С)
Тes
(С)
Комфортность P
(гПа)
Po
(гПа)
Тmin
(С)
Tmax
(С)
R
(мм)
R24
(мм)
S
(см)
штиль 0 5000 м осадки на расстоянии 10/4 240 м
[Cu Sc As op Ci sp]
+15.2 +13.0 87 +15 +15 тепло 1010.5 825.3 0.0
штиль 0 8000 м 6/4 240 м
[Cu med, cong Ac lent Ci sp]
+18.0 +14.8 82 +18 +26 тепло 1011.7 826.2 +15.0 0.0
штиль 0 8000 м 6/4 240 м
[Cu med, cong Ac lent Ci sp]
+22.4 +14.1 59 +26 +40 жарко 1009.6 824.6
Ю 2 5000 м осадки на расстоянии 9/4 240 м
[Cu Sc Ac cuf Ci sp]
+23.4 +13.9 55 +27 +31 душно 1007.9 823.1
штиль 0 5000 м осадки на расстоянии 9/4 240 м
[Cu Sc Ac cuf Ci sp]
+20.6 +13.8 65 +23 +23 комфорт 1009.1 824.1
штиль 0 5000 м осадки на расстоянии 9/4 240 м
[Cu Sc Ac cuf Ci sp]
+18.4 +13.5 73 +19 +19 тепло 1011.3 825.9 +24.4
штиль 0 7000 м 6/6 240 м
[Sc Ac trans Ci sp]
+15.4 +12.7 84 +15 +15 тепло 1010.0 824.8
штиль 0 7000 м мгла 6/6 240 м
[Sc Ac trans Ci sp]
+18.6 +13.7 73 +19 +25 тепло 1010.9 825.5 +15.0
З 4 9000 м 6/6 240 м
[Sc Ac trans Ci sp]
+23.4 +14.6 58 +27 +33 душно 1008.9 824.0
штиль 0 8000 м 10/3 300 м
[Cu Sc As op]
+22.0 +14.7 63 +25 +27 комфорт 1007.3 822.6
штиль 0 8000 м 10/3 300 м
[Cu Sc As op]
+19.8 +14.7 72 +22 +22 комфорт 1009.2 824.2
штиль 0 8000 м слаб. морось 10/3 300 м
[Cu Sc As op]
+18.6 +15.1 80 +19 +19 тепло 1011.5 826.1 +23.4 0.0
штиль 0 100 м туман местами 6/6 90 м
[Frnb Ac trans Ci sp]
+16.0 +15.7 98 +16 +16 тепло 1010.8 825.5
штиль 0 9000 м {туман} 5/3 270 м
[Cu Sc Ac trans Ci sp]
+19.8 +15.4 76 +22 +31 комфорт 1011.4 826.0 +15.8 0.0
З 3 9000 м 5/3 270 м
[Cu Sc Ac trans Ci sp]
+24.4 +15.1 56 +27 +38 жарко 1008.5 823.6
СВ 3 8000 м 8/3 300 м
[Cu Sc As op Cs]
+22.2 +13.9 59 +25 +29 комфорт 1007.2 822.6
СВ 2 8000 м слаб. морось 8/3 300 м
[Cu Sc As op Cs]
+20.0 +15.3 74 +23 +23 комфорт 1009.6 824.5 0.0
штиль 0 8000 м слаб. дождь {морось} 8/3 300 м
[Cu Sc As op Cs]
+18.4 +15.2 82 +19 +19 тепло 1011.9 825.5 +25.4 5
штиль 0 6000 м мгла {дождь} 8/4 240 м
[Cu Sc Ac As Ci fib]
+16.2 +14.2 88 +16 +16 тепло 1010.9 825.6 0.6
штиль 0 5000 м осадки на расстоянии 10/4 240 м
[Cu Sc As op Ci sp]
+17.4 +16.5 94 +17 +22 тепло 1012.4 826.8 +16.0 0.0
З 3 7000 м мгла 9/4 240 м
[Cu Sc Ac As Ci sp]
+23.6 +13.7 54 +26 +32 жарко 1009.2 824.2
штиль 0 6000 м 9/3 300 м
[Cu Sc As op Cs]
+23.6 +14.8 58 +26 +32 жарко 1007.6 822.9
штиль 0 6000 м 9/3 300 м
[Cu Sc As op Cs]
+22.0 +16.1 69 +26 +26 душно 1008.6 823.7
штиль 0 6000 м 9/3 300 м
[Cu Sc As op Cs]
+20.0 +15.6 76 +22 +22 комфорт 1010.7 825.4 +24.4
штиль 0 6000 м мгла 9/4 240 м
[Cu Sc Ac As Ci sp]
+16.8 +14.5 86 +17 +17 тепло 1009.3 824.3
З 3 8000 м мгла 8/4 270 м
[Cu Sc Ac lent Ci sp]
+20.2 +16.5 79 +23 +27 комфорт 1011.2 825.8 +15.6
З 4 9000 м 5/4 270 м
[Cu med, cong Ac lent Ci fib]
+23.4 +16.7 66 +28 +37 душно 1008.7 823.7
СВ 2 5000 м осадки на расстоянии 10/3 300 м
[Cu Sc As op Cs]
+22.4 +17.6 74 +27 +31 душно 1006.5 821.9
штиль 0 5000 м слаб. дождь 10/3 300 м
[Cu Sc As op Cs]
+18.0 +15.8 87 +18 +18 тепло 1009.0 824.1 14
штиль 0 5000 м слаб. дождь 10/3 300 м
[Cu Sc As op Cs]
+17.6 +15.7 89 +18 +18 тепло 1011.7 826.2 +24.6 2
штиль 0 7000 м мгла {дождь} 6/4 210 м
[Cu Sc Ac trans Ci sp]
+15.6 +14.3 92 +15 +15 тепло 1008.5 823.6 4
штиль 0 10 км 5/3 210 м
[Cu med, cong Ac trans Ci sp]
+18.7 +15.4 81 +20 +28 тепло 1010.5 825.2 +15.2 19
З 2 10 км 5/3 210 м
[Cu med, cong Ac trans Ci sp]
+23.0 +16.6 67 +28 +40 душно 1008.7 823.8
СВ 6 9000 м 6/4 300 м
[Cb cap Ac trans Ci fib]
+23.2 +17.1 69 +28 +31 душно 1006.7 822.1
штиль 0 9000 м в посл. час гроза 10/3 300 м
[Cu Sc As op Cs]
+19.6 +14.5 72 +21 +21 комфорт 1008.9 823.9
штиль 0 9000 м в посл. час дождь {гроза} 10/3 300 м
[Cu Sc As op Cs]
+18.6 +15.8 84 +19 +19 тепло 1011.3 825.9 +24.4 0.0
штиль 0 100 м туман местами {дождь} 10/9 150 м
[Frnb Ac lent Ci sp]
+16.2 +15.9 98 +16 +16 тепло 1011.0 825.6 0.3
штиль 0 9000 м {туман} 6/4 240 м
[Cu med, cong Ac trans Ci fib]
+18.6 +16.4 87 +19 +27 тепло 1012.3 826.7 +15.2 0.3
З 4 9000 м 6/4 240 м
[Cu med, cong Ac trans Ci fib]
+24.0 +16.4 62 +27 +35 жарко 1010.1 824.9
штиль 0 6000 м слаб. дождь 9/3 300 м
[Cu Sc As op Cs]
+21.0 +18.0 83 +25 +30 комфорт 1008.4 823.5 6
штиль 0 6000 м в посл. час дождь 9/3 300 м
[Cu Sc As op Cs]
+19.8 +16.7 82 +22 +22 комфорт 1010.2 825.0 0.0
штиль 0 6000 м в посл. час дождь 9/3 300 м
[Cu Sc As op Cs]
+18.2 +16.0 87 +19 +19 тепло 1012.1 826.5 +24.4 0.0
Местоположение метеостанции Энаротали (Индонезия): широта -3.92 долгота 136.37 высота над уровнем моря 1770 м.
В архиве по умолчанию представлена погода в Энаротали за последнюю неделю. Архивные данные за месяц целиком и за предыдущие месяцы, начиная с января 2011 года, Вы можете получить, выбрав интересующий диапазон дат из раскрывающегося списка и нажав кнопку "Найти!".
*Определитесь, кто Вы:
Внимание! Время в таблицах - всемирное. Для получения местного времени необходимо прибавить поправку, которая равна 9 ч.
Смотрите также архив погоды в соседних городах и на ближайших метеорологических станциях:
Партнеры нашего сайта:      
Пояснения к столбцам:
  • Ветер - указаны скорость ветра в м/с - средняя за 10 мин, порывы в срок и между сроками (в фигурных скобках) и направление, откуда дует ветер: С - северный,
  • СВ - северо-восточный, В - восточный, ЮВ - юго-восточный, Ю - южный, ЮЗ - юго-западный, З - западный, СЗ - северо-западный.
  • Видимость - горизонтальная дальность видимости в метрах или километрах. При видимости от 1 до 10 км при отсутствии осадков обычно наблюдается дымка, при ухудшении видимости до 1 км и менее - туман. В сухую погоду видимость может ухудшаться дымом, пылью или мглою.
  • Явления - указаны атмосферные явления, наблюдавшиеся в срок или в последний час перед сроком; фигурными скобками обозначены явления, наблюдавшиеся между сроками (за 1-3 часа до срока); квадратными скобками обозначены град или гололедные отложения с указанием их диаметра в мм.
  • Облачность - указаны через наклонную черту общая и нижняя облачность в баллах и высота нижней границы облаков в метрах; квадратными скобками обозначены формы облаков: Ci - перистые, Cs - перисто-слоистые, Cc - перисто-кучевые, Ac - высококучевые, As - высокослоистые, Sc - слоисто-кучевые, Ns - слоисто-дождевые, Cu - кучевые, Cb - кучево-дождевые. Подробнее классификацию облаков см. в Атласе облаков (PDF).
  • T - Температура воздуха - температура, измеренная на высоте 2 м над землей.
  • Td - Температура точки росы - температура, при понижении до которой содержащийся в воздухе водяной пар достигнет насыщения.
  • f - Относительная влажность воздуха - влажноcть воздуха, измеренная на высоте 2 м над землей.
  • Te - Эффективная температура - температура, которую ощущает одетый по сезону человек в тени. Характеристика душности погоды. При расчете учитывается влияние влажности воздуха и скорости ветра на теплоощущения человека.
  • Tes - Эффективная температура на солнце - температура, которую ощущает человек, с поправкой на солнечный нагрев. Характеристика знойности погоды. Зависит от высоты солнца над горизонтом, облачности и скорости ветра. Ночью, в пасмурную погоду, а также при ветре 12 м/с и более поправка равна нулю.
  • P - Атмосферное давление - приведенное к уровню моря атмосферное давление.
  • Po - Атмосферное давление - измеренное на уровне метеостанции атмосферное давление.
  • Tmin - Минимальная температура - минимум температуры воздуха на высоте 2 м над землей.
  • Tmax - Максимальная температура - максимум температуры воздуха на высоте 2 м над землей.
  • R - Количество осадков - Количество выпавших осадков за период времени, мм. При наведении курсора мыши на число - период времени, за который выпало указанное количество осадков.
  • R24 - Количество осадков - Количество выпавших осадков за 24 часа, мм.
  • S - Снежный покров - Высота снежного покрова, см. При наведении курсора мыши на число - состояние снежного покрова и степень покрытия местности в баллах.